Location: Unspecified
(44.4377°N, 88.0525°W)
Time: 16:21:33
(UTC-05:00)

CZ-3 Stage 3 - Visible Passes

Search period start: 24 October 2014 00:00
Search period end: 02 November 2014 23:00
Orbit: 416 x 34822 km, 30.9° (Epoch: 24 October)

Date Brightness Start Highest point End Pass type
(mag) Time Alt. Az. Time Alt. Az. Time Alt. Az.
24 Oct 6.1 00:09:37 10° SSW 07:46:40 51° SSW 07:55:15 10° ESE visible
24 Oct 7.8 21:02:21 10° SSE 03:51:50 54° SSE 04:20:08 10° E visible
25 Oct 8.4 20:58:48 10° ESE 23:38:31 26° ESE 00:33:01 10° E visible
27 Oct 6.1 00:03:52 10° SSW 07:43:03 51° SSW 07:51:32 10° SE visible
27 Oct 7.8 20:49:45 10° SSE 03:48:54 56° SSE 04:16:32 10° E visible
28 Oct 8.4 20:42:04 10° ESE 23:34:33 28° ESE 00:30:28 10° E visible
29 Oct 6.0 23:58:10 10° SSW 07:39:18 50° SSW 07:47:41 10° SE visible
30 Oct 7.7 20:37:31 10° SSE 03:45:48 57° SSE 04:12:49 10° E visible
31 Oct 8.3 20:25:35 10° ESE 23:30:27 30° ESE 00:27:37 10° E visible
01 Nov 6.0 23:52:29 10° SSW 06:35:25 49° SSW 06:43:43 10° SE visible
02 Nov 9.7 19:25:40 10° SSE 23:00:00 34° S 23:00:00 34° S visible
